World > North America > United States > Pennsylvania > Donegal Springs

Hourly Donegal Springs, PA Regional Weather

Feedback E-mail the Weather

Quick WX

Donegal Springs, PA Weather Maps

°F °C°F °C
Donegal Springs Weather Map
UTC Time: 8/15/2022, 06:47
Your Time:

Donegal Springs, PA Regional Weather

Expires:202208150700;;124172
ASUS41 KPHI 150614
RWRPHI

REGIONAL WEATHER ROUNDUP
NATIONAL WEATHER SERVICE MOUNT HOLLY NJ
200 AM EDT MON AUG 15 2022

NOTE:  "FAIR" INDICATES FEW OR NO CLOUDS BELOW 12,000 FEET WITH NO
SIGNIFICANT WEATHER AND/OR OBSTRUCTIONS TO VISIBILITY.

 * = STATION DOES NOT REPORT PRECIPITATION (E.G. RAIN, SNOW, ETC.) 
        OR FOG.


PAZ043-044-047-054-055-060>062-066>071-150700-
EASTERN PENNSYLVANIA
  
CITY           SKY/WX    TMP DP  RH WIND       PRES   REMARKS
PHILADELPHIA   MOCLDY    71  58  63 W6        30.01F                  
6HR MIN TEMP:  70; 6HR MAX TEMP:  81;                                

NORTH PHILA    MOCLDY    69  55  60 CALM      30.02F                  
BLUE BELL*     MOCLDY    60  58  92 CALM      30.03S                  
DOYLESTOWN     MOCLDY    64  55  72 CALM      30.01F                  
QUAKERTOWN*    CLEAR     61  59  94 CALM      30.02F                  
PERKASIE*      FAIR      59  59 100 CALM      30.03F                  
POTTSTOWN      PTCLDY    62  58  86 CALM      30.03F                  
LANCASTER      MOCLDY    68  58  70 CALM      30.01F                  
COATESVILLE    MOCLDY    63  59  88 CALM      30.03F                  
WEST CHESTER   FAIR      68  55  64 CALM      30.02F                  
READING        MOCLDY    68  59  73 CALM      29.99F                  
6HR MIN TEMP:  67; 6HR MAX TEMP:  77;                                

ALLENTOWN      PTCLDY    65  55  70 CALM      30.01F                  
6HR MIN TEMP:  64; 6HR MAX TEMP:  75;                                

QN CITY/ALNTWN FAIR      66  55  68 SW5       30.02F HAZE             
MOUNT POCONO   PTCLDY    54  51  90 N3        30.05F                  
6HR MIN TEMP:  54; 6HR MAX TEMP:  70;                                

HAZLETON       PTCLDY    55  52  88 CALM      30.07S                  
LEHIGHTON      FAIR      54  52  94 CALM      30.03F                  
WILKES BARRE   PTCLDY    64  53  67 E3        30.01S                  

$$

SKY/WX - Weather  TMP - Temperature  DP - Dew Point  RH - Humidity
WIND - Wind Direction/Speed PRES - Barometric Pressure VSB - Visibility
WCI - Wind Chill Index E13G22 Wind - East Wind 13 mph/Gusts of 22 mph

Trending Headlines

Donegal Springs Radar Loop



Donegal Springs Quick Facts


National Two Day Weather Forecast


E-mail the Donegal Springs Weather Forecast

Voice your opinion or tell us about page issues...